Miscellaneous Local Product
Issued by NWS Hastings, NE

Home | Current Version | Previous Version | Graphics & Text | Print | Product List | Glossary On
Versions: 1 2 3 4 5 6 7 8 9 10 11 12 13 14 15 16 17 18 19 20 21 22 23 24 25 26 27 28 29 30 31 32 33 34 35 36 37 38 39 40 41 42 43 44 45 46 47 48 49 50
000
AXUS43 KGID 240302
MISGRI

GID CWA HOURLY WEATHER ROUNDUP
NATIONAL WEATHER SERVICE HASTINGS NE
1000 PM CDT WED JUL 23 2014

NOTE: "FAIR" INDICATES FEW OR NO CLOUDS BELOW 12,000 FEET WITH NO
SIGNIFICANT WEATHER AND/OR OBSTRUCTIONS TO VISIBILITY.

...SOUTH CENTRAL NEBRASKA...

CITY           SKY/WX    TMP DP  RH WIND       PRES   REMARKS
GRAND ISLAND   CLEAR     70  62  76 E5        30.18R
HASTINGS       CLEAR     73  58  59 E6        30.18S
KEARNEY        CLEAR     70  63  78 E7        30.18S
ORD            CLEAR     70  61  73 SE5       30.17R
YORK           PTCLDY    70  64  83 E3        30.18R
AURORA         CLEAR     70  64  83 E3        30.18R
LEXINGTON      CLEAR     73  63  69 SE9       30.18S
HOLDREGE       CLEAR     69  63  81 E8        30.17S
HEBRON         CLEAR     67  61  79 CALM      30.16S

...NEBRASKA PANHANDLE...

CITY           SKY/WX    TMP DP  RH WIND       PRES   REMARKS
CHADRON        PTCLDY    83  67  58 SE22      30.02F
ALLIANCE       MOCLDY    78  64  61 SE20      30.12S
SCOTTSBLUFF    MOCLDY    82  67  60 E9        30.09F
SIDNEY         PTCLDY    83  61  47 S15       30.17R

...WESTERN AND NORTH CENTRAL NEBRASKA...

CITY           SKY/WX    TMP DP  RH WIND       PRES   REMARKS
VALENTINE      CLEAR     76  57  51 SE12      30.13S
AINSWORTH      CLEAR     71  56  58 SE10      30.16S
ONEILL         CLEAR     72  58  61 SE6       30.18R
BROKEN BOW     CLEAR     70  62  76 SE7       30.18S
IMPERIAL       CLEAR     72  65  78 SE15      30.16R
NORTH PLATTE   CLEAR     70  62  76 E10       30.16F
MCCOOK         CLEAR     72  65  78 E9        30.16S

...EASTERN NEBRASKA...

CITY           SKY/WX    TMP DP  RH WIND       PRES   REMARKS
NORFOLK        CLEAR     71  59  65 E3        30.18R
SO SIOUX CITY  CLEAR     74  60  61 E5        30.16R
TEKAMAH        CLEAR     71  63  75 E5        30.16R
COLUMBUS       CLEAR     66  61  82 NE3       30.17R
ALBION         CLEAR     67  60  78 SE5       30.18R
OMAHA EPPLEY   PTCLDY    75  62  64 E6        30.15R
OFFUTT AFB     CLEAR     71  65  81 CALM      30.14S
MILLARD        CLEAR     77  62  60 CALM      30.15R
LINCOLN        CLEAR     74  61  63 E5        30.16R
NEBRASKA CITY  CLEAR     72  61  68 CALM      30.16R
BEATRICE       CLEAR     72  62  71 E5        30.16R
FALLS CITY     CLEAR     73  66  78 E5        30.13S

...NORTHERN KANSAS...

CITY           SKY/WX    TMP DP  RH WIND       PRES   REMARKS
GOODLAND       MOCLDY    77  63  61 SE10      30.19R
HILL CITY      CLEAR     74  64  71 E8        30.15S
NORTON         CLEAR     70  61  73 E7        30.15
PHILLIPSBURG   CLEAR     73  64  73 E8        30.15S
SMITH CENTER   CLEAR     72  63  73 E9        30.16R
HAYS           CLEAR     75  61  60 E10       30.15R
RUSSELL        CLEAR     73  64  73 E7        30.13R
CONCORDIA      CLEAR     73  63  70 E3        30.15R
SALINA         CLEAR     82  61  48 E8        30.13R
TOPEKA         CLEAR     76  66  71 NE3       30.13R



USA.gov is the U.S. government's official web portal to all federal, state and local government web resources and services.